Kuchera_Ratio
21.3 21.3 21.4 21.7 22.0 22.2 22.5 22.7 22.8 22.7 23.0 23.2 23.5 23.3 23.4 23.5 23.8 24.3 24.4 24.3 24.7 24.2 24.8 25.2 25.9 25.7 25.5 25.1 26.2 26.1 26.0 25.6 25.4 25.4 25.4 25.9 26.0 26.8 26.6 27.1 28.6 30.3 30.2 27.4 25.1 25.3 25.2 23.9 23.2 24.4 23.4 24.0 23.7 23.3 22.5 20.9 21.4 21.1 21.4 21.3 21.1 21.0 19.0
21.4 21.4 21.7 22.0 22.1 22.3 22.5 22.7 22.7 22.9 23.0 23.7 23.9 23.9 23.6 24.1 24.4 24.5 24.8 24.8 25.3 25.1 25.2 25.7 26.4 26.2 25.8 25.4 26.5 26.6 26.8 26.6 26.7 26.8 26.8 26.5 26.8 26.9 27.2 25.9 28.2 29.2 29.9 30.4 26.8 26.6 24.9 25.2 24.0 26.0 23.1 24.6 24.5 24.3 23.1 23.3 22.6 22.3 21.9 22.3 21.9 22.0 21.8
21.7 21.8 22.0 22.2 22.3 22.4 22.7 22.7 22.9 22.9 23.2 23.8 24.0 24.3 24.2 24.0 24.5 24.8 25.3 25.6 25.6 25.6 25.4 26.3 26.6 26.8 26.5 26.6 27.3 27.2 27.2 27.1 27.4 27.1 27.5 27.5 26.9 27.4 26.9 26.4 26.5 28.5 30.4 30.2 29.2 26.5 27.0 26.3 25.3 25.7 25.2 23.8 23.8 24.0 23.6 24.3 24.2 23.9 23.1 22.6 22.3 22.6 22.4
21.9 22.2 22.3 22.8 22.9 22.6 23.1 22.9 23.0 23.2 23.4 23.5 24.2 24.6 24.7 24.7 24.9 25.2 25.5 25.9 26.0 25.9 26.2 26.8 27.2 27.2 27.0 27.1 27.8 27.8 27.5 27.4 27.5 27.6 27.6 27.9 27.5 27.4 27.3 26.7 26.5 26.8 28.5 28.9 29.8 27.8 27.2 25.9 26.2 25.6 24.5 24.2 24.0 24.6 24.7 24.7 24.6 23.9 24.7 24.0 23.4 23.1 23.1
22.2 22.6 22.6 23.4 23.2 23.2 23.2 23.2 23.1 23.5 23.6 23.7 23.9 24.4 25.0 25.4 26.0 26.3 26.4 26.2 26.3 25.9 26.7 27.0 27.5 27.3 27.4 27.7 28.8 28.9 28.6 28.1 28.5 28.1 28.1 28.4 27.8 27.5 27.3 27.0 26.8 27.1 27.1 28.4 29.4 28.5 26.6 25.8 25.8 25.3 25.3 24.8 26.0 25.6 25.3 24.9 25.3 25.1 25.1 25.0 24.0 23.4 22.8
22.4 22.7 23.2 22.9 22.9 22.9 23.0 23.1 23.3 23.6 23.9 23.9 24.2 24.4 24.8 25.9 26.2 26.2 26.7 26.8 26.7 26.8 27.0 27.5 27.8 27.5 27.7 28.6 29.5 29.7 29.4 29.3 29.5 29.2 29.3 29.2 28.8 28.3 27.9 28.0 27.8 27.4 27.6 28.0 28.5 28.5 28.5 26.7 27.3 27.2 26.6 25.8 25.6 26.5 27.0 26.8 26.2 25.4 25.2 25.8 25.9 25.1 24.1
23.2 22.8 22.8 22.9 23.1 23.0 23.3 23.5 23.9 24.5 24.8 24.9 25.0 26.8 26.9 27.0 26.9 26.7 27.0 27.0 26.8 27.0 27.1 27.5 28.0 28.4 28.4 29.0 29.3 29.7 30.0 30.1 30.2 30.1 30.3 29.7 29.7 29.0 29.3 29.6 29.7 29.1 28.9 29.0 29.3 29.2 28.6 28.8 27.6 27.3 28.6 26.4 25.4 25.9 26.3 27.6 27.9 28.5 26.6 26.1 26.2 26.4 24.8
24.0 23.2 23.3 23.5 23.5 23.4 24.0 24.3 24.6 25.1 25.4 25.7 25.9 27.9 28.0 27.7 27.8 27.8 27.7 27.6 27.5 27.4 27.9 28.0 27.7 28.6 28.7 29.0 29.1 29.4 29.5 29.8 30.2 29.9 30.4 29.7 29.7 29.7 30.0 30.5 30.2 29.8 29.6 29.7 30.1 30.3 30.5 29.5 29.5 28.5 27.3 26.3 26.6 28.2 28.2 27.0 27.9 29.5 28.6 27.7 26.1 25.8 26.0
23.7 25.4 25.4 24.2 24.3 24.5 24.8 25.0 26.7 25.6 25.6 28.1 28.3 28.8 28.9 28.3 28.1 28.1 28.3 28.4 28.4 28.3 28.4 28.8 28.2 28.5 28.3 28.1 27.1 26.6 26.8 27.3 27.6 29.6 30.5 30.0 29.9 30.3 30.5 30.4 30.3 30.4 30.2 30.6 31.0 31.2 30.1 30.3 30.1 29.6 29.4 29.5 29.7 30.0 29.8 27.4 27.1 28.5 27.5 27.1 27.1 26.3 24.9
24.3 26.7 27.2 27.2 27.4 27.5 27.8 27.8 26.6 26.0 23.9 22.7 26.1 27.9 28.0 27.8 27.6 27.6 27.9 28.2 28.7 28.9 28.9 29.2 29.2 28.5 27.0 26.7 26.4 26.1 25.8 25.5 25.4 25.4 27.0 28.7 29.4 29.6 29.9 30.2 30.6 30.7 30.8 30.9 31.5 31.4 30.9 31.3 31.3 30.5 29.6 29.6 28.7 27.5 27.0 27.8 27.9 29.0 27.9 27.4 28.1 27.0 25.9
26.9 27.2 27.5 27.7 28.0 28.1 28.2 28.4 27.2 24.7 21.2 20.4 19.6 21.7 23.6 24.8 25.1 25.1 25.5 26.4 27.3 27.8 27.7 28.1 28.5 28.0 27.5 26.4 25.9 26.0 25.0 24.8 24.3 24.2 24.1 23.9 24.1 24.8 27.1 29.1 29.4 29.4 29.3 30.1 30.6 30.5 30.6 30.7 31.0 30.0 28.8 28.7 28.2 27.5 27.8 27.9 27.6 28.0 28.3 29.7 30.5 31.4 27.4
27.2 27.5 27.8 28.1 28.3 28.4 28.6 28.8 26.5 22.0 20.8 20.2 20.0 20.5 23.2 23.8 24.2 24.5 24.7 24.9 25.4 25.7 26.2 26.3 26.8 27.6 27.6 27.5 27.1 26.9 26.7 26.0 24.7 24.3 24.2 23.9 23.8 23.7 22.9 22.1 25.3 27.6 28.5 28.6 29.5 29.5 29.4 29.7 29.9 29.5 28.7 28.9 28.4 28.3 27.6 27.4 27.4 28.1 28.8 29.5 30.0 29.4 29.6
27.5 27.8 28.1 28.5 28.6 28.8 29.1 29.2 25.2 21.9 20.9 20.6 20.5 20.4 21.5 23.9 24.3 24.6 24.8 24.9 25.1 25.5 25.9 26.6 27.5 28.7 29.0 29.3 26.1 26.1 27.2 28.6 28.5 26.2 25.2 25.1 24.8 24.6 24.1 22.4 22.9 22.7 24.4 25.5 27.0 27.6 27.7 27.1 27.1 27.9 27.6 27.0 27.4 26.7 28.5 28.0 28.6 28.5 28.4 28.4 28.8 28.2 27.5
27.8 28.2 28.4 28.8 29.1 29.3 29.6 29.8 27.3 23.0 21.6 21.2 20.8 20.5 21.8 24.1 24.2 24.3 24.6 24.9 25.3 26.1 27.5 28.5 29.2 29.7 30.0 30.3 29.8 29.0 29.1 29.2 29.4 29.6 29.5 29.2 28.8 28.5 27.2 25.7 24.4 24.6 24.3 24.4 26.2 27.5 28.5 27.0 26.4 27.5 26.6 25.8 24.9 26.4 27.9 28.2 28.8 27.9 28.3 28.2 28.1 26.5 26.1
28.3 28.7 28.9 29.3 29.6 29.9 30.2 30.4 25.4 22.8 21.7 21.4 21.0 20.7 21.4 23.7 23.9 24.6 25.2 25.8 26.7 27.7 28.6 29.3 29.5 29.8 29.9 30.1 30.4 30.0 29.3 30.5 30.7 30.8 30.9 30.9 30.9 30.5 30.1 29.7 29.2 29.2 29.1 28.5 28.0 28.4 28.5 28.1 27.3 27.1 26.6 25.8 25.5 26.3 26.3 26.0 26.3 25.9 25.9 25.6 25.0 25.3 25.0
28.8 29.2 29.4 29.8 30.2 30.4 30.3 30.4 24.3 22.8 21.9 21.5 21.3 21.0 23.4 23.9 24.4 25.0 25.8 27.5 29.0 29.7 29.8 29.7 30.0 30.4 30.5 30.4 30.4 28.9 26.0 26.1 28.1 30.0 31.0 31.3 31.1 31.1 30.5 30.2 27.7 24.3 25.1 26.9 27.2 27.2 26.9 26.6 26.1 23.7 25.1 25.0 24.8 24.9 24.8 24.7 24.5 24.8 25.6 26.6 27.5 28.1 26.2
29.4 29.7 30.1 30.2 30.3 30.5 30.5 30.4 27.2 23.8 22.7 22.1 21.5 22.3 24.5 24.9 25.6 26.5 27.3 27.7 29.0 30.0 30.3 30.2 30.3 30.3 30.4 30.5 30.8 28.7 24.7 23.4 24.6 27.2 28.5 29.4 30.0 30.1 30.3 30.0 28.0 24.8 24.8 23.1 22.9 22.0 21.8 20.9 21.4 20.9 20.6 20.5 20.2 21.6 22.2 24.2 26.1 26.9 26.1 27.4 28.4 27.7 27.3
29.9 30.0 30.3 30.3 30.4 30.8 30.9 30.7 28.8 24.6 23.4 22.4 21.8 22.6 24.6 25.0 25.7 26.5 26.7 27.5 29.0 30.2 30.5 30.1 27.2 27.6 29.9 30.5 30.5 26.4 23.7 23.5 25.5 26.6 27.1 28.1 28.6 29.0 29.1 28.5 27.4 27.2 25.8 21.5 20.2 19.5 18.9 20.3 20.8 21.1 21.9 22.4 21.8 21.4 22.5 27.7 29.5 28.0 28.4 29.7 29.3 30.1 29.1
30.2 30.2 30.4 30.5 30.7 29.5 30.1 30.9 29.7 25.6 24.0 23.0 22.4 23.6 25.2 25.7 26.6 27.5 27.8 28.0 28.6 30.0 30.4 30.1 28.4 26.7 27.0 28.0 27.8 24.0 23.3 23.8 25.3 26.4 26.7 27.2 28.1 28.7 28.8 27.6 26.6 26.6 26.9 26.5 26.3 28.5 29.2 28.8 26.7 28.1 28.9 28.8 26.5 25.5 26.0 27.9 29.4 29.6 31.1 31.5 30.9 30.5 30.2
30.4 30.4 30.4 30.7 30.9 31.1 31.3 31.5 31.5 30.3 25.1 23.9 23.0 22.4 24.8 25.4 26.5 27.2 27.1 27.5 29.5 30.9 31.2 31.0 31.0 28.9 26.4 23.5 23.5 22.4 21.8 22.8 22.7 24.7 25.7 26.0 26.9 27.6 27.6 25.7 25.7 25.2 25.5 27.5 29.2 30.8 30.8 30.7 30.4 30.1 29.9 29.6 29.4 29.4 29.5 28.8 28.9 29.7 30.0 30.9 30.9 30.6 30.4
30.5 30.7 30.6 30.7 31.1 31.1 31.2 31.5 31.8 31.7 25.6 24.4 23.4 22.8 23.4 25.9 26.2 26.5 27.0 27.7 28.6 30.0 31.0 30.8 30.8 30.8 28.5 25.6 23.2 22.5 22.4 22.5 21.5 21.1 23.7 24.7 26.1 26.0 24.8 23.5 28.9 28.9 27.8 30.5 31.5 31.8 31.7 31.6 31.3 30.9 30.6 30.4 30.0 29.7 30.0 30.5 30.0 29.6 29.8 30.5 31.2 31.6 31.5
30.7 30.8 30.7 30.8 30.9 30.9 31.0 31.5 31.0 32.3 28.5 25.3 24.3 23.5 23.0 25.2 25.8 25.4 26.7 27.5 28.4 29.0 29.7 30.2 30.0 30.5 28.4 26.8 23.9 22.7 23.1 22.3 21.5 20.8 23.1 25.0 22.9 22.0 23.6 29.0 29.5 31.0 31.9 32.1 32.4 32.8 33.0 32.8 32.6 32.6 32.4 32.4 32.2 32.0 31.6 31.3 31.1 30.5 30.1 29.7 30.1 30.6 31.5
30.7 30.9 30.8 30.7 30.7 30.7 30.9 31.4 32.1 30.9 31.5 28.2 25.1 24.1 23.4 23.2 24.4 23.1 24.8 26.9 27.7 27.6 27.5 27.6 28.3 28.0 26.3 25.6 23.3 23.1 23.5 22.5 21.1 23.6 26.6 23.6 23.6 24.6 26.2 29.4 32.4 32.6 33.0 33.3 33.6 34.2 34.5 34.3 34.1 34.2 34.2 34.2 34.3 33.7 33.1 32.3 31.5 31.1 30.8 30.4 29.7 29.0 29.0
30.7 31.1 31.0 30.7 30.6 30.6 30.8 31.4 32.2 32.4 30.6 30.6 27.6 25.0 23.7 23.1 22.7 23.9 26.2 26.2 27.2 26.8 27.3 28.4 30.6 30.7 25.0 25.0 24.5 23.4 22.1 22.9 25.5 26.8 24.5 24.5 25.6 27.5 29.3 32.6 33.1 33.7 34.1 34.4 34.8 35.3 35.5 35.2 34.9 35.1 35.2 34.9 34.2 33.5 33.4 31.7 31.6 31.4 31.2 31.2 31.0 30.5 29.7
30.8 31.1 31.1 31.0 30.9 30.8 30.9 31.7 32.4 32.9 32.4 30.5 29.9 25.9 24.1 23.5 23.5 25.0 25.3 26.9 27.4 28.3 30.5 28.1 25.4 25.3 25.4 24.0 23.3 23.5 25.3 28.0 28.9 27.5 27.6 27.9 28.6 29.4 33.3 33.6 34.1 34.6 34.9 35.5 35.8 35.8 35.8 35.8 35.4 35.2 34.2 33.3 32.9 32.2 32.2 32.5 32.5 31.9 31.6 31.4 31.2 30.8 30.3
30.8 31.1 31.3 31.3 31.3 31.3 31.4 32.0 32.7 32.6 31.9 31.4 31.0 30.3 28.0 25.5 25.8 26.5 26.5 26.7 27.5 26.7 26.1 25.4 25.1 25.5 25.0 25.9 26.6 29.2 32.1 32.3 32.4 29.4 29.5 30.0 30.9 34.2 34.3 34.4 34.6 35.0 35.6 36.1 36.3 36.3 36.2 35.8 35.9 35.7 35.3 33.8 33.5 34.3 34.7 34.3 34.0 33.7 33.1 32.6 32.2 32.1 31.6
30.9 31.2 31.5 31.6 31.8 32.0 32.1 32.5 33.0 32.9 32.1 31.4 31.4 31.5 31.2 31.1 31.1 29.8 29.0 30.0 30.5 29.2 29.5 28.6 28.1 28.5 27.1 28.0 28.3 29.0 29.8 31.1 32.0 33.7 33.9 34.1 34.4 34.5 34.5 34.8 35.3 36.0 36.7 37.1 37.1 36.8 36.7 36.2 35.8 35.4 34.9 35.6 35.8 35.6 34.9 34.1 33.3 33.6 33.7 33.2 33.2 33.5 33.4
31.2 31.3 31.6 32.1 32.5 32.7 33.0 33.2 33.3 33.1 32.2 31.6 31.5 31.3 31.1 31.1 31.1 30.9 30.8 30.8 30.5 30.5 30.8 31.1 29.3 30.8 33.0 33.3 33.5 33.8 34.1 34.3 34.5 34.6 34.7 34.7 35.0 35.1 35.4 35.1 33.4 33.4 36.5 37.9 37.9 37.8 37.1 36.7 36.6 37.0 36.7 36.2 36.2 36.0 35.2 33.6 33.6 34.0 34.2 33.5 33.2 34.0 34.1
31.2 31.1 31.7 32.6 33.3 33.8 34.3 34.2 33.4 32.1 29.8 30.9 29.9 30.8 31.1 31.3 31.2 30.9 30.9 30.7 29.5 30.2 31.9 32.9 33.5 33.8 34.1 34.5 34.7 34.9 35.1 35.1 35.1 35.2 35.2 35.4 35.8 36.5 37.1 37.7 38.3 38.1 38.2 38.4 38.6 38.6 38.2 37.7 37.6 37.4 37.0 36.6 36.8 36.3 35.5 34.4 34.5 33.7 34.1 33.6 34.0 35.2 35.1
31.0 31.2 31.6 31.9 31.6 31.6 32.5 32.1 30.5 26.8 23.8 23.2 24.0 24.1 25.3 25.7 25.0 25.7 27.2 27.3 27.2 27.9 32.9 33.8 34.4 35.0 35.3 35.4 35.6 35.8 35.9 35.9 36.1 36.4 36.6 36.8 37.3 37.9 38.5 38.4 38.3 38.5 38.8 38.9 38.0 38.1 38.1 38.1 37.8 37.8 37.6 37.7 37.3 36.5 35.5 34.3 33.1 34.4 34.0 35.3 36.1 36.6 36.0
22.5 22.3 23.6 25.3 27.5 27.4 27.1 27.3 26.8 25.6 23.2 22.9 22.9 22.9 23.2 23.4 24.1 23.8 25.0 26.7 31.6 32.4 33.6 34.6 35.3 35.7 35.9 35.9 36.3 36.8 37.0 37.2 37.8 38.4 38.7 39.0 39.0 39.0 39.0 38.6 39.1 39.3 39.1 38.4 38.8 38.3 38.4 38.2 38.3 38.2 38.1 38.0 37.1 36.5 36.0 35.7 34.5 34.4 35.0 36.2 36.5 37.2 36.5
22.5 23.1 24.1 24.1 24.8 25.6 26.2 25.2 24.8 25.0 23.4 23.4 23.3 23.5 23.4 23.0 23.5 23.6 25.5 28.3 29.5 33.5 34.3 35.2 35.8 36.0 36.3 36.8 37.4 37.8 38.1 38.5 39.1 39.4 39.6 39.7 39.8 39.7 39.7 39.8 39.8 39.9 39.9 39.8 39.7 39.6 39.4 39.0 38.8 38.5 37.9 37.4 36.8 36.0 36.5 36.5 36.3 36.2 36.4 36.5 36.9 36.9 36.4
24.1 23.9 24.0 24.1 24.0 23.6 24.4 25.5 25.9 25.4 24.2 24.2 24.5 24.2 25.8 25.0 24.7 26.2 26.2 29.1 34.2 34.6 35.2 35.9 36.4 36.6 37.1 37.6 38.1 38.3 38.7 39.2 39.7 39.9 40.2 40.0 40.0 40.0 40.1 40.3 40.3 38.8 40.3 40.0 40.0 39.5 39.5 38.9 38.7 38.1 37.7 37.1 36.8 37.1 37.8 36.9 36.9 36.7 36.9 37.2 37.9 37.5 36.7
27.7 27.5 28.3 28.0 27.0 26.4 25.8 25.7 26.0 26.0 26.8 26.5 26.0 26.1 26.5 28.3 28.5 25.4 25.0 31.7 35.0 35.8 36.1 36.7 37.2 37.6 37.9 38.2 38.6 38.8 39.1 39.6 39.9 40.2 40.5 40.3 40.3 40.2 40.3 40.5 40.7 40.8 40.8 40.7 40.3 40.5 40.1 39.3 39.3 38.5 38.6 38.7 38.4 37.6 37.3 37.5 37.4 37.6 38.4 38.4 38.1 37.7 37.3
32.2 32.5 30.8 31.9 31.5 30.8 30.1 30.1 29.7 29.5 29.2 29.0 29.4 29.0 27.6 25.6 30.8 33.2 33.6 34.7 35.8 36.5 36.9 37.3 37.7 38.0 38.2 38.5 38.9 39.2 39.5 39.8 40.1 40.3 40.5 40.4 40.4 40.3 40.4 40.5 40.6 40.7 40.8 40.8 40.9 40.9 40.9 40.3 39.5 39.2 38.2 38.2 38.8 38.8 38.8 38.5 38.3 38.3 38.3 38.6 38.4 38.0 37.4
32.5 32.8 33.2 31.7 31.5 31.0 30.6 30.2 29.9 30.0 29.9 28.2 26.5 26.2 26.8 34.1 35.3 35.7 35.8 36.1 36.4 36.6 37.1 37.5 37.8 38.0 38.3 38.7 39.1 39.4 39.6 39.9 40.1 40.2 40.3 40.3 40.3 40.2 40.3 40.4 40.5 40.7 40.8 40.9 40.9 41.0 40.0 39.3 39.8 39.6 39.5 39.6 39.3 39.0 38.6 38.4 38.5 38.6 38.3 38.2 38.5 37.9 37.7